EW1979 Weather Reports


time (UTC)temp
F
wind
direction
speed
knots
gust
knots
rain 1hr
in
rain 24hr
in
rain mn
in
humidity
%
barometer
mb
20260504231602 76 196 0.0 0.0 0.00 0.00 0.00 68 1006.3
20260504230107 76 165 0.0 0.0 0.00 0.00 0.00 69 1006.5
20260504224608 76 175 0.0 0.0 0.00 0.00 0.00 68 1006.7
20260504223008 76 152 0.0 0.0 0.00 0.00 0.00 68 1007.0
20260504221503 76 149 0.0 0.0 0.00 0.00 0.00 69 1007.0
20260504214616 76 198 0.0 0.0 0.00 0.00 0.00 68 1007.2
20260504213007 75 207 0.0 0.0 0.00 0.00 0.00 68 1007.3
20260504211603 74 178 0.0 0.0 0.00 0.00 0.00 70 1007.8
20260504210105 75 163 0.0 0.0 0.00 0.00 0.00 70 1008.0
20260504204606 75 182 0.0 0.0 0.00 0.00 0.00 69 1008.2
20260504203010 75 186 0.0 0.0 0.00 0.00 0.00 71 1008.4
20260504200004 74 194 0.0 0.0 0.00 0.00 0.00 70 1008.9
20260504194503 74 220 0.0 0.0 0.00 0.00 0.00 70 1009.3
20260504184504 73 182 0.0 0.0 0.00 0.00 0.00 71 1009.6
20260504181512 73 207 0.0 0.0 0.00 0.00 0.00 71 1010.2
20260504180007 72 163 0.0 0.0 0.00 0.00 0.00 72 1010.2
20260504174507 73 193 0.0 0.0 0.00 0.00 0.00 70 1010.4
20260504173007 71 186 0.0 0.0 0.00 0.00 0.00 73 1010.6
20260504171509 71 184 0.0 0.0 0.00 0.00 0.00 73 1010.5
20260504160106 68 169 0.0 0.0 0.00 0.00 0.00 75 1011.2
20260504140113 62 193 0.0 0.0 0.00 0.00 0.00 62 1011.8
20260504060107 62 155 0.0 0.0 0.00 0.00 0.00 76 1013.4
20260504044502 64 150 0.0 0.0 0.00 0.00 0.00 68 1013.8
20260504043008 64 159 0.0 0.0 0.00 0.00 0.00 66 1013.9
20260504034516 66 152 0.0 0.0 0.00 0.00 0.00 58 1014.2
20260504033117 66 147 0.0 0.0 0.00 0.00 0.00 57 1014.2
20260504024516 65 163 0.0 0.0 0.00 0.00 0.00 58 1014.5
20260504023006 65 163 0.0 0.0 0.00 0.00 0.00 57 1014.3
20260504020104 66 163 0.0 0.0 0.00 0.00 0.00 55 1014.4
20260504014603 66 163 0.0 0.0 0.00 0.00 0.00 55 1014.4
20260504013003 67 163 0.0 0.0 0.00 0.00 0.00 54 1014.3
20260504011504 67 163 0.0 0.0 0.00 0.00 0.00 53 1014.0
20260504004623 69 163 0.0 0.0 0.00 0.00 0.00 50 1014.2
20260504003003 70 159 0.0 0.0 0.00 0.00 0.00 49 1014.1
20260504001608 70 162 0.0 0.0 0.00 0.00 0.00 45 1014.3
20260504000003 71 142 0.0 0.0 0.00 0.00 0.00 44 1014.6
20260503234503 71 148 0.0 0.0 0.00 0.00 0.00 43 1014.6
20260503233103 72 178 0.0 0.0 0.00 0.00 0.00 42 1014.6